Regional Weather Roundup
Issued by NWS

Home | Current Version | Previous Version | Graphics & Text | Print | Product List | Glossary On
Versions: 1 2 3 4 5 6 7 8 9 10 11 12 13 14 15 16 17 18 19 20 21 22 23 24 25 26 27 28 29 30 31 32 33 34 35 36 37 38 39 40 41 42 43 44 45 46 47 48 49 50
000
ASUS43 KOAX 220702
RWRNE

WEATHER ROUNDUP FOR NEBRASKA
NATIONAL WEATHER SERVICE OMAHA NE
100 AM CST MON DEC 22 2014

NOTES: SATELLITE DATA IS BEING USED TO AUGMENT CLOUD COVER ABOVE
       12000 FEET.
       "FAIR" INDICATES FEW OR NO CLOUDS BELOW 12,000 FEET WITH NO
       SIGNIFICANT WEATHER AND/OR OBSTRUCTIONS TO VISIBILITY.

  * THESE STATIONS DO NOT REPORT WEATHER SUCH AS RAIN...SNOW OR FOG.

NEZ001>004-019>022-054>056-220800-
NEBRASKA PANHANDLE

CITY           SKY/WX    TMP DP  RH WIND       PRES   REMARKS
SCOTTSBLUFF    PTCLDY    36  30  79 NW17      29.61S WCI  26
ALLIANCE       MOCLDY    34  27  75 NW18      29.55F WCI  23
CHADRON        CLOUDY    38  31  76 W14       29.58R WCI  30
SIDNEY         CLOUDY    36  29  75 NW16      29.59F WCI  26
$$

NEZ057>060-069>072-079>082-220800-
SOUTHWEST NEBRASKA

CITY           SKY/WX    TMP DP  RH WIND       PRES   REMARKS
NORTH PLATTE   MOCLDY    28  26  92 NW5       29.52R WCI  23
IMPERIAL       CLOUDY    41  31  67 NW17G26   29.55S
LEXINGTON      PTCLDY    34  32  94 W5        29.51S FOG     WCI  30
MCCOOK         MOCLDY    31  29  92 W12       29.53R WCI  22
$$

NEZ005>010-023>029-035>040-094-220800-
NORTH CENTRAL NEBRASKA

CITY           SKY/WX    TMP DP  RH WIND       PRES   REMARKS
VALENTINE      CLOUDY    38  32  79 W8        29.47S WCI  32
BROKEN BOW     PTCLDY    35  33  92 W5        29.48F WCI  31
$$

NEZ041-046>049-061>064-073>077-083>087-220800-
SOUTH CENTRAL NEBRASKA

CITY           SKY/WX    TMP DP  RH WIND       PRES   REMARKS
GRAND ISLAND   CLOUDY    41  39  93 S17       29.52F
HASTINGS       CLOUDY    41  38  89 S12       29.51F
HEBRON         CLOUDY    43  41  92 S12       29.57F FOG
KEARNEY *      CLOUDY    39  37  93 S14       29.51S WCI  31
$$

NEZ011>018-030>034-042>045-220800-
NORTHEAST NEBRASKA

CITY           SKY/WX    TMP DP  RH WIND       PRES   REMARKS
NORFOLK        LGT RAIN  42  40  92 S15       29.52F
COLUMBUS *     CLOUDY    43  39  87 S13G20    29.56F
TEKAMAH        CLOUDY    43  41  93 S15       29.60F FOG
$$

NEZ050>053-065>068-078-088>093-220800-
SOUTHEAST NEBRASKA

CITY           SKY/WX    TMP DP  RH WIND       PRES   REMARKS
LINCOLN        CLOUDY    43  42  97 S15       29.59F
OMAHA EPPLEY   DRIZZLE   43  42  97 S18       29.63F FOG
FALLS CITY     CLOUDY    43  40  89 S10       29.65F
NEBRASKA CITY  CLOUDY    42  42 100 S14G20    29.63F FOG
$$

NEZ044-045-051>053-067-220800-
OMAHA AREA

CITY           SKY/WX    TMP DP  RH WIND       PRES   REMARKS
OMAHA EPPLEY   DRIZZLE   43  42  97 S18       29.63F FOG
OFFUTT AFB     CLOUDY    43  42  96 SE13      29.62F FOG
WAHOO          RAIN      43  40  91 S15       29.58F
$$



USA.gov is the U.S. government's official web portal to all federal, state and local government web resources and services.